Regional Weather Roundup
Issued by NWS Newport/Morehead, NC

Current Version | Previous Version | Graphics & Text | Print | Product List | Glossary Off
Versions: 1 2 3 4 5 6 7 8 9 10 11 12 13 14 15 16 17 18 19 20 21 22 23 24 25 26 27 28 29 30 31 32 33 34 35 36 37 38 39 40 41 42 43 44 45 46 47 48 49 50

000
ASUS42 KMHX 052324
RWRMHX
WEATHER ROUNDUP FOR EASTERN NORTH CAROLINA
NATIONAL WEATHER SERVICE NEWPORT/MOREHEAD CITY NC
700 PM EDT TUE MAY 05 2015

NOTE: "FAIR" INDICATES FEW OR NO CLOUDS BELOW 12,000 FEET
WITH NO SIGNIFICANT WEATHER AND/OR OBSTRUCTIONS TO VISIBILITY

NCZ015>017-031-032-045>047-102-103-060000-
NORTH COAST

CITY           SKY/WX    TMP DP  RH WIND       PRES   REMARKS
EDENTON        MOSUNNY   72  54  52 S10       30.27R
ELIZABETH CITY PTCLDY    74  51  44 S13       30.26S
KITTY HAWK     MOCLDY    71  53  52 S8        30.28S
MANTEO         MOCLDY    70  56  61 SW12      30.29S

$$

NCZ045>047-081-094-103-104-060000-
CENTRAL COAST

CITY           SKY/WX    TMP DP  RH WIND       PRES   REMARKS
FRISCO         MOCLDY    68  55  63 S10       30.29F
SWANQUARTER      N/A     72 N/A N/A SE5G12    30.27S

$$

NCZ095-097-098-100-101-060000-
SOUTHERN COAST

CITY           SKY/WX    TMP DP  RH WIND       PRES   REMARKS
BEAUFORT       MOCLDY    71  56  58 SE10      30.29S
CEDAR ISLAND     N/A     72 N/A N/A SE8G15    30.33S
JACKSONVILLE   PTSUNNY   70  53  54 SE6       30.28S
PINEY ISLAND   MOCLDY   N/A N/A N/A S9        30.28F
WILMINGTON     PTSUNNY   71  55  56 E8        30.27F


$$

NCZ011>013-027>030-043-044-078>080-089-090>093-098-060000-
COASTAL PLAIN

CITY           SKY/WX    TMP DP  RH WIND       PRES   REMARKS
AHOSKIE        SUNNY     76  53  44 S5        30.24S
CLINTON        MOSUNNY   76  52  44 SE5       30.27S
ELIZABETHTOWN  MOSUNNY   74  52  45 SE8       30.27R
GOLDSBORO      MOSUNNY   76  47  34 S9        30.24S
GREENVILLE     PTSUNNY   77  48  36 S12G18    30.27R
HAVELOCK       PTSUNNY   71  49  45 S8        30.30S
KENANSVILLE    PTSUNNY   74  47  39 SE5       30.28F
KINSTON        PTSUNNY   75  48  38 S10G16    30.27F
NEW BERN       PTSUNNY   71  50  47 S5        30.29F
RICHLANDS      PTSUNNY   70  52  52 CALM      30.29S
ROCKY MOUNT    SUNNY     78  55  44 S5        30.24F
WASHINGTON     PTSUNNY   73  50  44 S7        30.28R
WHITEVILLE     PTSUNNY   74  54  49 SE8       30.26S

$$

AMZ130-135-150-152-154-156-158-170-250-252-270-ANZ085-086-088-633-658-670-060000-
MARINE OBSERVATIONS

STATION/POSITION TIME  TEMP    WIND        PRES    WAVE   SWELL
                       AIR SEA DIR/SP/G            HT/PER HT/PER
                 (UTC) (F)     (DEG/KT/KT) (MB)    (FT/S) (FT/S)
CHESAPEAKE LIGHT 2300   67     180/ 25/ 26 1023.9
64 E VA BEACH    2250   65 61  200/ 16/ 19 1024.7    2/11   2/11
DUCK             2300   72 55  180/ 14/ 20 1024.1
2 E DUCK         2211      58                N/A     2/11   2/11
OREGON INLET     2300   70 72  200/ 11/ 12 1025.7
13E OREGON INLT  2300      62                N/A     2/11   2/11
HATTERAS CG      2300          160/  8/ 12 1025.4
DIAMOND BUOY     2250   72 77  160/ 16/ 17 1025.7    3/11   2/11
CAPE LOOKOUT     2300   69     150/  8/  9 1025.4
BEAUFORT LAB     2300   70 69  160/  7/  9 1024.8
27 SE WRIGHTSVLE 2200   68 71  120/ 10/ 12   N/A
5 SE WRIGHTSVLE  NOT AVBL
225 S CAPE HAT   2250   70 70  100/ 19/ 21 1024.5    5/ 6   2/ 9
41 SE CHARLESTON 2250   73 74   60/ 14/ 16 1023.2    4/ 6   2/10

$$



USA.gov is the U.S. government's official web portal to all federal, state and local government web resources and services.